PRISMA (MANGO)

Satellite information

Favourite Embed

Satellite Type and Status

PAYLOADIN ORBIT

Key statistics

Satellite PRISMA (MANGO) at a glance.

Uptime

5661

Days in orbit

Revolutions

≈ 14.6

Per day

Orbit

SSO

Sun Synchronous Orbit

Inclination

98.0

Latest

Satellite identification and parameters

Extended collection of information and parameters for PRISMA (MANGO).

Object identification

Identified? True

Debris? False

Object name: PRISMA (MANGO)

International designator: 2010-028B

Object number (NORAD): 36599

Object ID (CCSDS): 36599

Country: SWEDEN (SWED)

Current information (Y/N): Y

RCS size: MEDIUM

Orbital parameters

Period: 98.704 minutes

Inclination: 98.0276 deg

SMA: 7074.843 km

Apoapsis: 734.98 km

Periapsis: 658.436 km

RAAN: 186.9551 deg

Eccentricy: 0.00540962

Argument of periapsis: 71.9459 deg

Mean anomaly: 288.7624 deg

Mean motion: 14.58906722 rev/day

Mean motion (dot): 0.00000982 rev/day2

B* drag term: 0.0002150638 1/REarth

Two-line elements (TLE)

Creation date: Dec. 12, 2025, 10:14 a.m.

Reference frame: TEME

Reference center: EARTH

Epoch: Dec. 12, 2025, 2:45 a.m. UTC

TLE line 0: 0 PRISMA (MANGO)

TLE line 1: 1 36599U 10028B 25346.11527663 .00000982 00000-0 21506-3 0 9990

TLE line 2: 2 36599 98.0276 186.9551 0054096 71.9459 288.7624 14.58906722821899

Live tracking on map

Real-time ground track for satellite PRISMA (MANGO).

In-orbit conjunctions

There are no conjunctions computed for PRISMA (MANGO), at the moment. Check back to stay up to date, as we update our databases every day.

Go to all conjunctions

Associated space launch

PRISMA (MANGO) was lifted into orbit during the mission ‘Dnepr 1 | Prisma-Mango, Prisma-Tango, Picard, BPA-1’, on board a Dnepr space rocket.

The launch took place on June 15, 2010, 2:42 p.m. from 370/13.

For more information about the launch, click the button.

Launch to space Dnepr 1 | Prisma-Mango, Prisma-Tango, Picard, BPA-1
Dnepr 1 | Prisma-Mango, Prisma-Tango, Picard, BPA-1

Agency: N/A

Status: Launch Successful

Launch date: June 15, 2010, 2:42 p.m. UTC

Rocket: Dnepr

Launch pad: 370/13

Location: Dombarovskiy, Russian Federation

...

Latest news about this satellite

There are no fresh news available about this satellite. Check back as we update our databases every day.


Newsletter sign-up

Weekly statistics, charts and insights to help you stay on top of the space industry.